Regional Weather Roundup
Issued by NWS Newport/Morehead, NC

Home | Current Version | Previous Version | Text Only | Print | Product List | Glossary On
Versions: 1 2 3 4 5 6 7 8 9 10 11 12 13 14 15 16 17 18 19 20 21 22 23 24 25 26 27 28 29 30 31 32 33 34 35 36 37 38 39 40 41 42 43 44 45 46 47 48 49 50
000
ASUS42 KMHX 271025
RWRMHX
WEATHER ROUNDUP FOR EASTERN NORTH CAROLINA
NATIONAL WEATHER SERVICE NEWPORT/MOREHEAD CITY NC
600 AM EDT FRI MAY 27 2016

NOTE: "FAIR" INDICATES FEW OR NO CLOUDS BELOW 12,000 FEET
WITH NO SIGNIFICANT WEATHER AND/OR OBSTRUCTIONS TO VISIBILITY

NCZ015>017-031-032-045>047-102-103-271100-
NORTH COAST

CITY           SKY/WX    TMP DP  RH WIND       PRES   REMARKS
EDENTON        PTCLDY   N/A N/A N/A CALM      30.17S
ELIZABETH CITY MOCLDY    66  63  90 SW6       30.16F
KITTY HAWK     SUNNY     65  61  87 CALM      30.17R
MANTEO         NOT AVBL

$$

NCZ045>047-081-094-103-104-271100-
CENTRAL COAST

CITY           SKY/WX    TMP DP  RH WIND       PRES   REMARKS
FRISCO         CLEAR     69  62  78 S3        30.17S

$$

NCZ095-097-098-100-101-271100-
SOUTHERN COAST

CITY           SKY/WX    TMP DP  RH WIND       PRES   REMARKS
BEAUFORT       CLEAR     62  61  96 CALM      30.16R
CEDAR ISLAND   NOT AVBL
JACKSONVILLE   CLEAR     62  60  93 CALM      30.16R
PINEY ISLAND   SUNNY    N/A N/A N/A CALM      30.16R
WILMINGTON     CLEAR     64  62  93 CALM      30.15S


$$

NCZ011>013-027>030-043-044-078>080-089-090>093-098-271100-
COASTAL PLAIN

CITY           SKY/WX    TMP DP  RH WIND       PRES   REMARKS
AHOSKIE        CLEAR     66  62  86 S3        30.15S
CLINTON        PTCLDY    66  66  99 CALM      30.15S
ELIZABETHTOWN  CLEAR     64  64 100 CALM      30.15R
GOLDSBORO      CLEAR     66  66 100 CALM      30.14R
GREENVILLE     PTCLDY    66  64  94 S3        30.17S
HAVELOCK       PTCLDY    60  58  92 CALM      30.17R
KENANSVILLE    PTCLDY    59  58  97 CALM      30.17R
KINSTON        CLEAR     64  63  95 CALM      30.17R
NEW BERN       CLEAR     60  58  92 CALM      30.17S
RICHLANDS      CLEAR     60  59  96 CALM      30.17R FOG
ROCKY MOUNT    MOCLDY    67  64  90 S6        30.15S
WASHINGTON     CLEAR     63  62  97 CALM      30.16S
WHITEVILLE     CLEAR     62  60  94 CALM      30.14S

$$

AMZ130-135-150-152-154-156-158-170-250-252-270-ANZ085-086-088-633-658-670-271100-
MARINE OBSERVATIONS

STATION/POSITION TIME  TEMP    WIND        PRES    WAVE   SWELL
                       AIR SEA DIR/SP/G            HT/PER HT/PER
                 (UTC) (F)     (DEG/KT/KT) (MB)    (FT/S) (FT/S)
CHESAPEAKE LIGHT 1000   70     220/ 18/ 19 1021.2
64 E VA BEACH    0950   63 59  210/  4/  4 1021.8    2/ 8   2/ 8
DUCK             1000   71 60  220/  7/  8 1021.0
2 E DUCK         0911      62                N/A     1/ 8
OREGON INLET     1000   72 76  220/  3/  3 1021.6
13E OREGON INLT  1000      64                N/A     2/ 8   2/ 8
HATTERAS CG      1000   71 72  150/  2/  3 1021.2
DIAMOND BUOY     0950   76 78  220/  4/  6 1021.7    2/ 8   2/ 8
CAPE LOOKOUT     1000   72     180/  1/  1 1021.0
BEAUFORT LAB     1000   69 72   CALM  /  1 1020.6
30 SE NEW RVR IN 0925      74                N/A     3/ 8
27 SE WRIGHTSVLE 1008   75 74   90/  2/  4 1020.3
5 SE WRIGHTSVLE  0908   73 73  150/  2/  4 1021.3
225 S CAPE HAT   0950   76 77   60/ 14/ 16 1018.7    3/ 5   2/ 7
41 SE CHARLESTON 0950   76 77   60/  4/  6 1019.4    2/ 8   2/ 8

$$




USA.gov is the U.S. government's official web portal to all federal, state and local government web resources and services.